Wind_Speed
57 57 58 64 62 57 52 51 52 52 52 53 53 54 50 48 51 52 54 57 50 48 53 58 58 53 51 53 55 61 49 52 51 40 48 47 47 54 54 56 57 63 70 82 83
59 59 62 57 56 58 57 56 60 59 59 56 56 54 52 54 53 59 59 60 54 57 54 57 54 54 55 57 59 51 54 52 45 43 51 51 54 52 57 57 60 68 75 79 84
64 64 61 66 66 63 63 59 63 58 58 58 56 56 59 53 53 55 62 60 59 63 59 57 58 63 58 55 55 55 59 55 46 41 45 45 48 56 59 56 60 71 73 78 87
60 65 68 70 71 70 72 64 61 59 58 54 54 56 63 65 61 61 62 65 61 63 58 62 64 63 55 54 57 59 58 50 48 44 55 54 54 59 58 60 69 74 73 80 84
66 69 67 66 67 67 64 66 61 64 66 67 64 64 69 70 67 64 70 70 69 67 66 61 67 61 58 55 56 50 50 47 45 54 60 54 57 56 63 71 72 70 77 84 80
74 74 72 73 75 77 75 75 78 80 85 84 78 76 75 76 76 76 66 62 60 63 66 67 61 54 48 49 49 49 45 50 54 56 52 55 57 61 63 63 66 70 78 78 78
82 86 83 82 84 87 89 91 92 92 81 79 80 75 68 68 59 56 58 58 59 61 61 63 55 48 51 56 54 51 51 54 52 50 53 57 55 59 59 61 64 72 73 74 76
77 84 86 75 84 79 80 85 87 79 81 83 75 77 73 71 65 62 55 55 56 54 53 54 45 45 49 51 52 51 56 47 48 57 53 49 52 62 60 61 71 71 74 75 70
63 64 69 72 70 72 74 78 80 79 75 72 67 63 63 64 68 70 67 59 54 54 51 52 51 53 54 57 57 54 51 49 54 54 58 57 56 62 66 71 70 68 77 70 67
50 48 52 61 59 63 64 61 64 65 62 63 62 58 58 63 61 62 58 58 61 62 59 58 62 61 64 66 66 58 53 51 54 60 62 59 60 63 65 68 68 67 73 67 64
46 47 49 53 52 54 56 52 51 51 52 53 56 58 60 60 55 57 63 64 66 63 62 65 65 68 72 67 59 55 56 61 60 60 65 63 65 65 66 65 69 69 64 62 60
47 47 49 52 52 53 51 51 48 44 47 50 47 53 57 61 57 57 58 57 62 65 69 65 64 69 71 69 69 69 72 67 67 71 71 65 66 61 61 67 66 61 59 58 60
45 46 44 45 47 51 56 51 46 46 46 48 50 48 53 50 54 59 61 57 57 61 62 66 69 67 69 71 72 71 73 73 73 73 70 64 59 58 68 66 59 54 51 50 48
49 48 50 47 49 50 48 45 44 45 43 41 44 43 51 53 50 54 51 52 54 55 58 59 65 61 60 63 68 68 73 73 71 69 66 66 69 65 62 58 52 50 44 41 38
58 55 56 54 55 53 48 49 47 46 34 31 33 37 45 48 52 50 53 52 53 55 54 52 57 62 65 67 64 68 66 64 62 63 62 61 57 62 57 53 49 45 39 36 37
65 64 62 62 64 61 56 54 55 48 22 33 34 36 38 41 47 53 51 49 51 52 50 51 51 48 52 60 63 63 60 61 61 61 59 60 57 55 52 50 45 38 33 33 34
71 70 69 69 74 69 67 65 58 44 38 42 45 46 41 38 38 45 52 52 53 49 48 53 50 44 44 46 51 55 58 59 61 60 58 56 52 52 46 42 36 30 21 26 29
75 76 78 78 78 78 75 72 57 41 46 53 54 56 49 49 44 44 40 47 50 51 51 50 45 48 44 40 42 43 42 43 46 46 46 48 44 39 30 29 25 20 15 20 27
85 84 83 90 89 87 83 77 51 56 55 61 67 62 54 54 55 47 37 40 50 49 48 53 42 46 38 32 31 35 32 38 31 34 32 32 28 23 23 20 16 12 12 15 25
93 92 89 99 97 95 91 63 61 64 67 70 72 66 59 59 59 55 46 45 49 51 48 50 44 42 39 30 28 25 30 29 32 26 24 15 18 16 17 16 15 9 6 14 24
97 94 100 105 102 101 88 68 73 73 75 77 74 73 66 68 66 61 51 49 48 51 48 49 45 44 39 32 32 27 25 29 32 25 15 10 16 14 14 14 9 10 7 16 21
103 98 107 108 107 103 91 77 83 80 83 84 79 76 73 76 72 65 57 47 51 52 45 44 51 43 39 33 34 27 24 24 29 22 14 13 10 13 16 14 8 11 11 16 16
110 107 114 113 110 104 94 92 91 88 88 88 86 82 80 79 78 68 59 53 51 50 46 47 49 46 39 36 36 34 28 22 29 25 15 12 8 12 18 16 11 4 9 14 14
111 113 119 114 112 109 103 98 99 96 97 97 91 90 85 84 83 74 64 58 55 53 52 55 51 46 37 44 35 33 24 27 22 18 15 15 13 15 16 16 10 14 10 11 13
108 108 119 110 108 108 112 106 107 104 99 104 98 92 92 87 89 72 69 62 61 54 57 57 48 49 40 43 35 33 19 24 15 15 16 16 16 22 22 20 19 11 7 3 11
94 99 106 109 107 109 110 106 106 107 106 103 97 93 96 87 81 77 77 71 65 61 60 60 46 49 43 42 36 34 22 27 28 20 16 15 12 22 31 22 14 19 16 13 9
77 87 96 97 95 105 106 111 109 112 109 107 101 102 101 79 91 88 84 78 69 64 61 62 52 47 47 42 39 29 23 28 37 25 24 16 22 17 27 28 32 24 17 12 11
Wind_Direction
233 236 234 235 238 241 241 245 250 261 265 269 270 270 267 266 272 270 267 270 270 279 282 282 286 290 295 299 290 296 299 308 312 303 309 299 294 300 310 313 314 318 317 320 325
235 234 236 238 242 246 249 255 259 265 267 268 265 264 270 275 276 272 267 268 268 283 286 282 284 289 291 294 292 293 299 305 302 304 305 301 301 306 312 310 309 318 324 327 325
235 240 245 246 248 247 257 259 255 259 263 263 266 264 270 266 263 268 268 272 271 277 283 279 283 288 288 292 290 296 300 300 297 300 302 302 295 308 308 305 311 317 323 323 324
243 247 248 248 251 254 255 253 249 250 252 254 257 263 268 270 261 269 272 276 278 283 277 278 283 285 287 288 290 296 297 293 292 298 302 299 297 305 304 307 311 315 322 323 327
250 253 252 250 251 253 252 255 250 256 260 266 267 268 266 265 260 273 278 279 284 280 277 277 281 281 283 288 292 288 287 285 289 297 300 299 302 299 304 307 313 318 323 325 328
259 259 260 260 260 257 257 258 262 264 271 271 268 269 271 266 270 278 276 274 275 274 273 282 279 278 274 283 281 284 280 289 295 294 294 297 295 297 303 308 312 320 323 326 326
259 258 260 263 265 268 269 270 271 272 269 269 268 267 264 267 269 266 268 268 271 273 277 279 280 269 273 283 281 274 285 288 293 286 294 301 299 299 302 310 314 319 325 326 323
258 261 260 263 264 267 268 270 270 268 270 271 267 269 263 263 258 258 261 266 270 267 269 267 264 261 266 273 268 276 288 287 278 285 291 299 298 300 304 309 312 318 321 324 322
259 259 262 264 267 270 269 269 271 269 269 268 268 267 265 261 260 261 261 260 254 260 262 264 261 261 269 273 274 279 280 280 279 284 291 298 297 299 303 309 313 315 319 321 323
257 259 261 263 263 265 265 266 268 269 266 266 264 264 264 265 261 258 256 257 259 258 259 260 264 266 268 271 273 278 280 277 275 281 291 296 298 301 305 306 308 314 318 322 323
256 258 260 259 257 257 259 260 261 263 268 270 269 266 266 268 268 263 256 259 259 255 263 264 265 266 266 267 265 261 260 268 277 281 289 293 296 300 302 306 309 314 316 320 321
252 254 257 256 256 257 258 257 259 262 266 268 270 269 269 268 270 267 261 260 259 264 265 268 266 266 267 266 265 266 268 272 280 283 287 289 293 296 298 304 307 310 315 317 323
260 256 261 261 262 257 254 254 256 255 257 264 266 271 272 272 267 270 270 263 262 264 264 266 267 268 263 264 267 270 271 274 280 282 286 287 287 290 298 301 303 308 311 318 321
265 265 265 261 260 256 257 254 255 255 253 261 261 265 268 266 270 265 269 268 265 264 271 267 266 267 271 271 269 271 272 274 278 279 279 283 286 290 296 296 299 308 305 315 326
266 264 265 266 268 263 257 255 255 254 258 268 272 263 264 266 266 268 267 270 269 269 271 266 267 268 269 270 273 273 276 276 278 280 280 281 287 293 294 295 304 302 305 307 327
265 265 264 267 268 268 265 260 265 258 252 259 273 274 275 272 270 266 265 268 271 270 270 271 270 271 270 270 272 273 275 275 276 276 279 283 287 288 291 293 298 297 307 307 326
264 265 264 264 265 266 266 267 266 259 268 270 266 272 272 276 282 281 270 266 266 270 269 266 270 271 272 271 270 270 269 270 271 274 275 280 284 285 289 292 285 298 303 319 332
261 264 264 263 262 263 265 265 267 272 273 273 271 272 272 277 283 285 279 270 268 261 263 267 267 268 269 273 274 275 276 274 270 272 275 276 277 282 286 278 284 294 299 326 332
263 261 261 262 263 263 261 263 272 270 269 270 267 269 271 276 281 281 281 269 264 264 262 264 264 267 270 273 273 270 274 267 270 266 270 273 275 273 266 276 278 280 305 331 336
260 260 259 259 260 260 261 267 268 266 265 264 268 270 271 275 277 279 281 280 263 259 261 263 263 266 263 265 267 269 268 271 266 266 265 285 288 266 253 264 277 315 308 337 338
257 257 257 258 259 260 265 265 262 260 261 261 263 267 270 271 272 274 278 276 273 261 258 255 255 263 261 259 261 262 270 276 261 245 225 279 291 253 245 254 266 254 308 330 328
257 256 255 257 258 259 259 259 257 256 257 260 261 264 267 268 270 273 277 277 269 262 258 253 251 254 257 257 258 261 271 267 244 235 239 266 248 255 244 270 255 262 290 327 318
256 253 254 254 256 258 258 256 256 256 258 259 260 261 261 263 267 272 274 273 265 258 252 251 247 245 250 252 255 256 259 266 241 227 230 231 205 243 215 236 212 223 276 302 311
255 253 255 255 254 255 256 254 255 254 254 257 257 259 261 265 267 269 271 269 266 254 245 244 241 240 239 245 249 257 269 249 265 225 215 217 186 210 214 209 242 229 250 289 299
250 251 254 253 254 255 254 252 251 252 253 252 255 256 259 258 261 263 265 263 262 254 241 239 240 236 231 245 249 250 246 241 241 236 205 190 192 201 190 204 225 215 249 291 301
248 246 247 249 249 251 251 250 251 252 253 253 252 253 252 253 258 259 257 257 255 247 240 237 232 232 231 238 241 242 230 218 243 254 233 191 229 201 193 202 223 220 242 269 283
247 247 244 245 245 246 248 248 247 247 247 248 250 248 249 252 250 250 251 252 252 244 235 240 228 228 228 231 234 235 240 234 235 241 230 200 212 194 199 216 230 234 244 253 261
Height
10853 10856 10859 10862 10864 10866 10867 10868 10870 10873 10873 10875 10878 10880 10881 10881 10883 10879 10881 10880 10881 10883 10880 10879 10876 10875 10874 10873 10873 10871 10867 10864 10863 10861 10858 10850 10843 10840 10834 10827 10816 10809 10800 10789 10776
10843 10846 10847 10850 10851 10853 10856 10859 10860 10860 10862 10866 10869 10871 10872 10874 10873 10869 10870 10870 10872 10873 10871 10870 10868 10867 10866 10863 10865 10863 10860 10855 10855 10854 10850 10844 10837 10832 10826 10820 10811 10802 10789 10777 10768
10831 10834 10835 10837 10839 10842 10845 10847 10848 10850 10854 10856 10858 10858 10862 10863 10863 10859 10859 10861 10860 10863 10863 10861 10858 10857 10857 10856 10852 10851 10853 10847 10845 10847 10842 10837 10829 10824 10818 10815 10806 10795 10788 10778 10768
10818 10822 10824 10824 10826 10828 10832 10835 10837 10840 10843 10845 10845 10847 10850 10854 10850 10850 10849 10848 10849 10851 10852 10852 10849 10849 10849 10849 10844 10841 10842 10839 10835 10832 10832 10829 10822 10814 10808 10802 10796 10788 10780 10769 10757
10803 10807 10811 10812 10815 10817 10818 10822 10825 10829 10832 10835 10835 10837 10841 10837 10834 10842 10839 10838 10839 10839 10842 10842 10840 10838 10839 10839 10835 10834 10833 10830 10829 10826 10821 10819 10813 10806 10799 10791 10785 10777 10770 10759 10746
10789 10792 10795 10800 10802 10803 10805 10808 10812 10813 10816 10821 10821 10827 10828 10819 10832 10827 10824 10824 10827 10827 10829 10830 10830 10827 10828 10830 10828 10827 10826 10823 10822 10818 10816 10811 10803 10800 10794 10786 10779 10770 10761 10751 10740
10780 10782 10783 10787 10787 10788 10789 10791 10793 10797 10799 10802 10805 10815 10814 10804 10815 10812 10810 10812 10815 10817 10818 10818 10821 10819 10818 10820 10820 10819 10819 10816 10814 10809 10807 10804 10794 10789 10788 10780 10772 10765 10756 10748 10737
10770 10771 10772 10772 10774 10773 10773 10774 10776 10777 10778 10784 10790 10799 10795 10800 10803 10801 10801 10801 10804 10806 10806 10807 10808 10809 10808 10810 10809 10811 10811 10808 10807 10802 10800 10797 10791 10781 10780 10774 10767 10760 10750 10741 10732
10755 10756 10757 10756 10756 10757 10758 10760 10763 10764 10767 10770 10773 10779 10773 10785 10782 10789 10794 10791 10797 10796 10796 10798 10799 10799 10799 10799 10800 10799 10801 10801 10796 10792 10790 10791 10784 10774 10771 10766 10758 10754 10744 10736 10725
10743 10742 10742 10743 10741 10742 10745 10747 10751 10754 10755 10758 10761 10761 10757 10767 10769 10777 10778 10778 10784 10786 10786 10788 10788 10788 10787 10789 10788 10791 10791 10791 10787 10783 10777 10778 10776 10770 10766 10762 10753 10746 10738 10730 10721
10731 10730 10729 10729 10731 10731 10735 10737 10741 10744 10744 10745 10748 10746 10746 10752 10758 10760 10762 10765 10769 10772 10772 10774 10780 10775 10775 10778 10778 10779 10779 10779 10779 10775 10771 10770 10766 10760 10756 10753 10746 10738 10731 10726 10717
10722 10721 10720 10720 10721 10721 10724 10727 10730 10734 10731 10730 10734 10732 10733 10737 10744 10745 10750 10753 10754 10759 10758 10763 10764 10757 10761 10763 10764 10769 10768 10770 10767 10764 10765 10764 10759 10756 10750 10747 10739 10733 10727 10720 10713
10709 10709 10708 10709 10709 10710 10711 10719 10717 10718 10718 10719 10721 10725 10721 10728 10731 10731 10734 10739 10745 10746 10744 10752 10743 10747 10752 10751 10750 10753 10754 10757 10758 10754 10754 10755 10750 10748 10744 10740 10735 10730 10723 10716 10710
10695 10695 10695 10698 10696 10696 10699 10705 10704 10702 10713 10711 10714 10718 10707 10716 10721 10717 10720 10725 10731 10731 10735 10738 10725 10735 10737 10739 10737 10738 10737 10743 10744 10741 10744 10743 10742 10740 10737 10731 10729 10725 10719 10713 10707
10678 10679 10678 10681 10679 10680 10688 10689 10688 10688 10710 10705 10699 10697 10698 10702 10702 10708 10708 10713 10714 10715 10723 10716 10718 10722 10726 10722 10724 10721 10727 10727 10729 10727 10731 10729 10734 10729 10725 10720 10721 10717 10714 10709 10703
10658 10660 10661 10660 10658 10662 10668 10671 10671 10681 10703 10694 10687 10685 10686 10687 10687 10689 10699 10703 10701 10705 10708 10704 10708 10710 10710 10710 10712 10709 10712 10713 10714 10714 10719 10718 10722 10719 10717 10713 10714 10712 10710 10705 10699
10638 10638 10641 10640 10632 10641 10647 10648 10655 10680 10682 10681 10673 10672 10675 10677 10678 10678 10684 10691 10691 10695 10695 10694 10697 10698 10699 10699 10697 10698 10699 10701 10701 10703 10707 10708 10712 10710 10710 10708 10706 10706 10704 10701 10696
10613 10615 10616 10615 10612 10614 10624 10627 10650 10668 10665 10656 10656 10655 10664 10664 10669 10668 10671 10677 10678 10682 10684 10684 10687 10685 10688 10692 10691 10690 10690 10691 10689 10693 10696 10698 10700 10702 10702 10701 10701 10700 10700 10696 10694
10586 10588 10593 10576 10582 10586 10599 10610 10646 10645 10645 10638 10630 10640 10651 10652 10652 10655 10663 10664 10662 10666 10671 10670 10677 10677 10681 10684 10683 10681 10683 10678 10684 10684 10686 10688 10692 10696 10695 10695 10696 10697 10696 10694 10692
10555 10559 10566 10542 10552 10558 10567 10613 10623 10624 10619 10614 10609 10625 10635 10637 10638 10640 10648 10650 10649 10653 10658 10658 10666 10669 10672 10675 10675 10675 10673 10676 10677 10680 10680 10681 10683 10686 10689 10689 10693 10693 10693 10690 10690
10523 10532 10523 10513 10522 10528 10556 10597 10594 10596 10593 10593 10598 10602 10618 10617 10620 10624 10638 10638 10638 10641 10648 10648 10656 10657 10663 10667 10667 10669 10671 10670 10671 10673 10672 10675 10679 10680 10680 10683 10688 10690 10689 10688 10689
10485 10498 10481 10483 10489 10505 10539 10573 10561 10569 10566 10568 10581 10589 10598 10592 10597 10612 10625 10631 10624 10627 10636 10638 10641 10649 10656 10659 10658 10662 10664 10664 10665 10664 10668 10671 10674 10676 10674 10680 10684 10687 10687 10686 10687
10443 10456 10442 10449 10460 10484 10517 10525 10530 10543 10546 10550 10559 10570 10575 10577 10580 10595 10608 10614 10614 10616 10624 10627 10632 10640 10647 10650 10649 10653 10657 10657 10655 10657 10661 10665 10668 10672 10675 10677 10681 10682 10683 10684 10684
10392 10407 10399 10421 10439 10453 10480 10498 10498 10514 10518 10522 10539 10544 10559 10566 10565 10578 10591 10595 10597 10602 10609 10610 10619 10629 10639 10636 10642 10645 10649 10650 10650 10652 10655 10660 10663 10669 10671 10675 10676 10678 10679 10681 10680
10347 10366 10371 10386 10408 10425 10435 10461 10466 10482 10496 10496 10510 10530 10535 10543 10541 10569 10571 10576 10577 10586 10591 10594 10609 10615 10626 10629 10635 10636 10641 10643 10645 10646 10650 10655 10659 10664 10666 10669 10670 10675 10677 10677 10679
10310 10329 10342 10345 10370 10379 10394 10421 10440 10456 10464 10473 10488 10505 10499 10519 10537 10546 10543 10550 10558 10565 10576 10580 10600 10605 10614 10621 10626 10626 10632 10639 10640 10644 10646 10652 10655 10659 10662 10665 10667 10670 10673 10675 10677
10286 10292 10303 10321 10339 10346 10365 10386 10395 10410 10422 10441 10455 10460 10467 10521 10500 10507 10516 10527 10543 10551 10562 10565 10585 10597 10604 10611 10617 10625 10628 10631 10630 10635 10640 10646 10650 10656 10658 10662 10664 10667 10670 10672 10674